Date String (YYYY-MM-DD hh:mm:ss) UTC,Instrument flags,absolute air pressure of the measurement (hPa),sample flow rate (lpm),inlet stack bypass flow (lpm),air temperature of the measurement (°C),ambient temperature measured by the external sensor (°C),aerosol sample conditioner tube jacket temperature (°C),OPC LED temperature (°C),internal box temperature (°C),relative humidity of the measurement (%),span deviation,mass concentration of particles derived from Lorenz-Mie calculation of OPC scattering (μg/m³),mass concentration of particles derived from Lorenz-Mie calculation of OPC scattering (μg/m³),mass concentration of particles derived from Lorenz-Mie calculation of OPC scattering (μg/m³)
DateTimeUTC,F1_M11,P_M11,Q1_M11,Q2_M11,T1_M11,T2_M11,T3_M11,T4_M11,T5_M11,U1_M11,ZSPAN_M11,X0_M11,X2_M11,X1_M11
2023-08-21 18:00:00,SystemResetWarning,0836.0,5.00,000.00,027.5,024.6,000.0,035.7,029.0,21.1,0002.8,0016.84,0007.17,0006.28
2023-08-21 18:01:00,SystemResetWarning,0836.0,4.99,000.00,027.5,025.0,000.0,035.8,029.1,21.0,0002.6,0015.69,0007.07,0006.24
2023-08-21 18:02:00,SystemResetWarning,0836.0,5.00,000.00,027.5,025.4,000.0,035.8,029.2,20.7,0002.6,0015.30,0006.99,0006.21
2023-08-21 18:03:00,SystemResetWarning,0836.0,5.01,000.00,027.6,025.8,000.0,035.8,029.3,20.7,0002.4,0015.07,0006.98,0006.21
2023-08-21 18:04:00,SystemResetWarning,0836.0,5.01,000.00,027.6,026.2,000.0,035.9,029.4,20.8,0002.5,0015.09,0006.94,0006.18
2023-08-21 18:05:00,SystemResetWarning,0836.0,4.98,000.00,027.7,026.1,000.0,035.8,029.4,19.3,0002.9,0015.43,0006.96,0006.17
2023-08-21 18:06:00,SystemResetWarning,0836.0,5.00,000.00,027.6,024.8,000.0,035.8,029.2,18.1,0003.2,0016.18,0006.99,0006.15
2023-08-21 18:07:00,SystemResetWarning,0835.9,5.01,000.00,027.6,024.2,000.0,035.7,029.1,17.6,0003.3,0016.17,0006.96,0006.13
2023-08-21 18:08:00,SystemResetWarning,0835.9,5.02,000.00,027.6,024.5,000.0,035.7,029.1,17.2,0003.4,0015.56,0006.95,0006.12
2023-08-21 18:09:00,SystemResetWarning,0836.0,4.99,000.00,027.5,024.9,000.0,035.7,029.1,18.0,0003.2,0014.87,0006.96,0006.11
2023-08-21 18:10:00,SystemResetWarning,0835.9,5.00,000.00,027.5,025.3,000.0,035.8,029.2,18.7,0003.3,0015.23,0006.99,0006.11
2023-08-21 18:11:00,SystemResetWarning,0835.9,5.01,000.00,027.6,025.7,000.0,035.8,029.3,19.9,0003.2,0015.40,0006.98,0006.10
2023-08-21 18:12:00,SystemResetWarning,0835.9,5.01,000.00,027.6,026.0,000.0,035.8,029.4,19.8,0002.9,0015.04,0006.97,0006.09
2023-08-21 18:13:00,SystemResetWarning,0836.0,5.00,000.00,027.7,026.1,000.0,035.8,029.4,20.1,0002.9,0014.94,0006.93,0006.06
2023-08-21 18:14:00,SystemResetWarning,0835.9,4.98,000.00,027.6,024.8,000.0,035.8,029.0,20.1,0003.0,0014.75,0006.87,0006.01
2023-08-21 18:15:00,SystemResetWarning,0835.9,5.01,000.00,027.5,024.2,000.0,035.7,028.9,20.2,0002.9,0013.99,0006.81,0005.97
2023-08-21 18:16:00,SystemResetWarning,0835.9,5.01,000.00,027.5,024.5,000.0,035.7,029.0,20.6,0002.6,0013.49,0006.77,0005.93
2023-08-21 18:17:00,SystemResetWarning,0835.9,4.99,000.00,027.5,024.9,000.0,035.7,029.0,21.1,0002.1,0012.74,0006.69,0005.90
2023-08-21 18:18:00,SystemResetWarning,0835.9,5.00,000.00,027.5,025.3,000.0,035.8,029.1,22.0,0002.0,0012.52,0006.64,0005.87
2023-08-21 18:19:00,SystemResetWarning,0835.9,5.00,000.00,027.6,025.6,000.0,035.8,029.3,22.3,0002.3,0012.72,0006.61,0005.85
2023-08-21 18:20:00,SystemResetWarning,0835.9,5.01,000.00,027.6,026.0,000.0,035.8,029.4,22.3,0002.1,0011.67,0006.54,0005.82
2023-08-21 18:21:00,SystemResetWarning,0835.9,4.99,000.00,027.6,026.0,000.0,035.8,029.4,22.2,0002.0,0011.70,0006.47,0005.79
2023-08-21 18:22:00,SystemResetWarning,0835.9,4.99,000.00,027.6,024.7,000.0,035.8,029.2,22.1,0002.0,0011.67,0006.43,0005.76
2023-08-21 18:23:00,SystemResetWarning,0835.9,5.01,000.00,027.5,024.1,000.0,035.7,029.0,22.4,0002.3,0012.26,0006.39,0005.72
2023-08-21 18:24:00,SystemResetWarning,0835.8,5.01,000.00,027.5,024.5,000.0,035.7,029.1,23.8,0002.5,0012.35,0006.36,0005.70
2023-08-21 18:25:00,SystemResetWarning,0835.9,4.99,000.00,027.5,024.9,000.0,035.7,029.1,24.6,0002.6,0012.40,0006.34,0005.67
2023-08-21 18:26:00,SystemResetWarning,0835.8,5.00,000.00,027.5,025.3,000.0,035.7,029.2,24.8,0002.6,0012.36,0006.28,0005.63
2023-08-21 18:27:00,SystemResetWarning,0835.9,5.00,000.00,027.6,025.7,000.0,035.8,029.3,24.6,0002.7,0012.31,0006.23,0005.60
2023-08-21 18:28:00,SystemResetWarning,0835.9,5.00,000.00,027.6,026.1,000.0,035.8,029.4,24.5,0002.8,0012.27,0006.21,0005.56
2023-08-21 18:29:00,SystemResetWarning,0835.8,4.99,000.00,027.7,026.1,000.0,035.8,029.4,24.4,0002.9,0012.92,0006.20,0005.54
2023-08-21 18:30:00,SystemResetWarning,0835.8,4.99,000.00,027.6,024.7,000.0,035.8,029.2,24.3,0002.9,0013.77,0006.16,0005.54
2023-08-21 18:31:00,SystemResetWarning,0835.8,5.01,000.00,027.6,024.1,000.0,035.7,029.1,24.8,0002.7,0013.75,0006.16,0005.52
2023-08-21 18:32:00,SystemResetWarning,0835.8,5.01,000.00,027.5,024.5,000.0,035.7,029.1,24.0,0002.9,0013.67,0006.20,0005.51
2023-08-21 18:33:00,SystemResetWarning,0835.8,5.00,000.00,027.5,024.8,000.0,035.7,029.1,24.4,0003.1,0013.35,0006.19,0005.50
2023-08-21 18:34:00,SystemResetWarning,0835.8,5.00,000.00,027.5,025.2,000.0,035.8,029.2,25.2,0003.1,0013.54,0006.22,0005.51
2023-08-21 18:35:00,SystemResetWarning,0835.8,5.00,000.00,027.6,025.7,000.0,035.8,029.3,25.2,0002.9,0013.46,0006.23,0005.50
2023-08-21 18:36:00,SystemResetWarning,0835.9,5.00,000.00,027.6,026.0,000.0,035.8,029.4,25.5,0002.6,0013.48,0006.20,0005.48
2023-08-21 18:37:00,SystemResetWarning,0835.9,4.99,000.00,027.7,026.0,000.0,035.8,029.4,25.2,0002.6,0013.43,0006.20,0005.48
2023-08-21 18:38:00,SystemResetWarning,0835.8,4.99,000.00,027.6,024.8,000.0,035.8,029.2,25.0,0002.6,0013.66,0006.21,0005.48
2023-08-21 18:39:00,SystemResetWarning,0835.8,5.02,000.00,027.6,024.2,000.0,035.7,029.1,24.8,0002.8,0013.80,0006.18,0005.47
2023-08-21 18:40:00,SystemResetWarning,0835.8,4.99,000.00,027.5,024.6,000.0,035.7,029.1,25.4,0002.7,0013.39,0006.15,0005.45
2023-08-21 18:41:00,SystemResetWarning,0835.8,4.99,000.00,027.5,024.9,000.0,035.7,029.0,25.7,0002.8,0013.11,0006.14,0005.42
2023-08-21 18:42:00,SystemResetWarning,0835.8,5.01,000.00,027.5,025.3,000.0,035.8,029.2,26.0,0002.8,0013.18,0006.14,0005.39
2023-08-21 18:43:00,SystemResetWarning,0835.8,5.01,000.00,027.6,025.7,000.0,035.8,029.3,25.9,0002.8,0013.25,0006.07,0005.37
2023-08-21 18:44:00,SystemResetWarning,0835.8,5.00,000.00,027.6,026.1,000.0,035.9,029.4,25.8,0002.6,0013.69,0006.06,0005.36
2023-08-21 18:45:00,SystemResetWarning,0835.8,5.00,000.00,027.7,026.1,000.0,035.8,029.5,26.2,0002.6,0012.88,0006.03,0005.34
2023-08-21 18:46:00,SystemResetWarning,0835.8,4.98,000.00,027.7,024.8,000.0,035.8,029.2,26.5,0002.7,0012.95,0006.04,0005.33
2023-08-21 18:47:00,SystemResetWarning,0835.7,5.02,000.00,027.6,024.2,000.0,035.7,029.1,26.5,0003.2,0013.29,0006.07,0005.34
2023-08-21 18:48:00,SystemResetWarning,0835.6,5.00,000.00,027.6,024.6,000.0,035.7,029.1,26.3,0003.2,0013.83,0006.13,0005.35
2023-08-21 18:49:00,SystemResetWarning,0835.8,5.00,000.00,027.5,025.0,000.0,035.7,029.1,26.9,0003.2,0013.50,0006.14,0005.36
2023-08-21 18:50:00,SystemResetWarning,0835.8,4.99,000.00,027.6,025.4,000.0,035.8,029.2,27.5,0002.7,0013.21,0006.16,0005.37
2023-08-21 18:51:00,SystemResetWarning,0835.8,5.00,000.00,027.6,025.8,000.0,035.8,029.4,26.4,0002.6,0013.07,0006.18,0005.38
2023-08-21 18:52:00,SystemResetWarning,0835.7,5.01,000.00,027.7,026.1,000.0,035.9,029.5,25.7,0002.4,0012.45,0006.17,0005.40
2023-08-21 18:53:00,SystemResetWarning,0835.6,4.99,000.00,027.7,025.4,000.0,035.8,029.3,25.6,0002.2,0011.81,0006.18,0005.43
2023-08-21 18:54:00,SystemResetWarning,0835.6,5.00,000.00,027.6,024.3,000.0,035.7,029.1,25.7,0002.4,0012.12,0006.19,0005.44
2023-08-21 18:55:00,SystemResetWarning,0835.6,5.01,000.00,027.6,024.4,000.0,035.7,029.0,26.2,0002.3,0011.99,0006.20,0005.48
2023-08-21 18:56:00,SystemResetWarning,0835.6,5.00,000.00,027.5,024.7,000.0,035.7,029.0,27.0,0002.2,0012.85,0006.31,0005.52
2023-08-21 18:57:00,SystemResetWarning,0835.6,5.00,000.00,027.5,025.1,000.0,035.8,029.1,26.1,0002.2,0013.17,0006.39,0005.57
2023-08-21 18:58:00,SystemResetWarning,0835.6,5.00,000.00,027.6,025.5,000.0,035.8,029.3,25.0,0002.2,0012.80,0006.41,0005.59
2023-08-21 18:59:00,SystemResetWarning,0835.6,4.99,000.00,027.6,025.9,000.0,035.8,029.4,24.5,0002.0,0012.34,0006.42,0005.61
